Location: Asheville, NC
(35.6000°N, 82.5500°W)
Time: 15:32:24
(UTC-04:00)

Vanguard 3 - Pass Details

Date: 17 March 2018
Orbit: 508 x 3264 km, 33.3° (Epoch: 25 June)

Event Time Altitude Azimuth Distance (km) Brightness Sun altitude
Rises 04:46:53 0° 184° (S) 6,136 - -34.5°
Exits shadow 04:47:21 - 183° (S) 6,081 11.4 -34.5°
Reaches altitude 10° 04:52:51 10° 167° (SSE) 5,566 11.2 -33.5°
Maximum altitude 05:03:06 18° 131° (SE) 5,364 11.5 -31.6°
Drops below altitude 10° 05:14:14 10° 97° (E) 6,195 12.3 -29.5°
Sets 05:21:20 0° 81° (E) 7,088 13.1 -28.1°
